sat.trackr.live / text

‹ back to catalog

STARLINK-37162

NORAD 68262 · 2026-055A

PAYLOAD ACTIVE UNKNOWN

§ Identity

Operator
Country
US
Launch date
2026-03-19
Launch site
AFETR
Launch vehicle
Mass (kg)
RCS (m²)

Purposes: comms

External: N2YO · Heavens-Above · Gunter

§ Orbital elements

Epoch: 2026-05-24T18:47:37.334400Z

Period
93.86 min
Inclination
53.1602°
Eccentricity
0.0005022
Mean motion
15.34233868 rev/d
Perigee alt
459.8 km
Apogee alt
466.6 km
Semi-major
6,841.3 km
B*
-5.3780e-3
RAAN
324.9377°
Arg perigee
93.1528°
Mean anomaly
267.0049°
Rev number
1,159

§ Raw data

STARLINK-371621 68262U 26055A   26144.78307100 -.00177046  00000+0 -53780-2 0  99962 68262  53.1602 324.9377 0005022  93.1528 267.0049 15.34233868 11592

JSON: /api/v1/satellites/68262 · /tle

For live sub-satellite position, see the globe view (requires WebGL).

§ Visibility from observer

Set your observer location to see the next 7 days of passes ≥ 10°. The values pass through the URL so the page stays shareable.

No JS? Fill the form by hand. The geolocation button needs JavaScript.